COSMOS 312

导读

COSMOS 312(宇宙312号)是苏联(独联体CIS)于1969年11月24日发射的人造卫星,隶属于“宇宙号”卫星系列。该系列是世界上规模最大的卫星家族,多数为军用任务卫星,涵盖侦察、技术试验等多种用途。作为冷战时期苏联航天活动的组成部分,COSMOS 312承载了特定空间任务需求,印证了当时苏联在航天领域的探索与部署,是早期航天发展历史的重要见证。

Basic Information
目录编号:
4254
目录名称:
COSMOS 312
国际标识:
1969-103A
轨道中心:
EARTH
卫星名称:
COSMOS 312
卫星全名:
--
卫星状态:
在轨 (已飞行20748 天)
发射日期:
1969-11-24 UTC
国别 :
俄罗斯(独联体) (CIS)
星等 :
--
This satellite is enrolled in the Space Conjunction Data Service (SCDS) and the current flight risk assessment level is: No High Risk
Orbit Information
数据来源 国际轨道数据 AOE轨道数据
星历时间 2026-09-14T10:33:12+0800
6小时前
查看轨道信息
2026-09-13T00:00:00+0800
1天前
查看轨道信息
半长轴 7535.428km 7535.436km
偏心率 0.0022566 0.0022588
轨道倾角 74.021° 74.020°
近地点辐角 162.176° 164.661°
升交点赤经 299.610° 301.810°
平近点角 226.841° 187.905°
近地点 1140.286km 1140.277km
远地点 1174.296km 1174.321km
周期 108.498分钟 108.498分钟
每日圈数 13.272138 13.272119
Detailed Information
使用方式:
暂无
2D Orbit Map
3D Orbit Map
Orbit Altitude Analysis Chart
Orbit Inclination Analysis Chart
Orbit Comprehensive Analysis Chart
View Comprehensive Chart
Conjunction Data List
Event ID Objects TCA Miss Dist (km) Collision Risk Probability Collision Risk Index (CRI) Action
CDM_260916-203400-425406-724221
2026-09-16T
20:34:00+0000
1.924 km
极远距离
2.829959E-6 低风险 0.44
CDM_260915-012200-425401-377626
2026-09-15T
01:22:38+0000
1.956 km
极远距离
1.610898E-6 低风险 0.39
CDM_260916-205100-425402-137321
2026-09-16T
20:51:31+0000
2.844 km
极远距离
1.376653E-6 低风险 0.38
Miss Distance Evolution Trend with All Objects Subscribe to Flight Safety Assessment
Collision Probability Evolution Trend with All Objects Subscribe to Flight Safety Assessment